Location: Anumalkud?ru
(16.4847°N, 80.6636°E)
Time: 10:03:33
(UTC+00:00)

OAO 3 Rocket - Pass Details

Date: 11 April 2026
Orbit: 612 x 660 km, 35.0° (Epoch: 20 May)

Event Time Altitude Azimuth Distance (km) Brightness Sun altitude
Exits shadow 23:05:55 32° 296° (WNW) 1,110 3.9 -19.2°
Maximum altitude 23:08:07 79° 214° (SSW) 663 3.0 -18.7°
Drops below altitude 10° 23:12:52 10° 128° (SE) 2,034 6.2 -17.6°
Sets 23:15:12 0° 127° (SE) 2,935 7.1 -17.1°
